[Iaude] MPEC M82: 2019 CV30 [a=45.81,e=0.07,i=19.5,H=7.66]

mpec at cfa.harvard.edu mpec at cfa.harvard.edu
Thu Jun 27 02:58:04 EDT 2024


M.P.E.C. 2024-M82                                 Issued 2024 June 27, 06:56 UT

     The Minor Planet Electronic Circulars contain information on unusual
         minor planets, routine data on comets and natural satellites,
         and occasional editorial announcements.  They are published
    on behalf of Division F of the International Astronomical Union by the
          Minor Planet Center, Smithsonian Astrophysical Observatory,
                          Cambridge, MA 02138, U.S.A.
			  
             Prepared using the Tamkin Foundation Computer Network

                              MPC at CFA.HARVARD.EDU
            URL https://www.minorplanetcenter.net/    ISSN 1523-6714

                                   2019 CV30                                    


Additional Observations:
     K19C30V 5C2015 03 20.44060211 18 33.46 +03 20 33.9                WEM082T14
     K19C30V 5C2015 03 20.44389211 18 33.45 +03 20 34.0                WEM082T14
     K19C30V 5C2015 03 20.44720111 18 33.43 +03 20 34.2                WEM082T14
     K19C30V 1C2018 03 18.45631811 34 30.39 +03 04 14.9                WEM082T09
     K19C30V 1C2018 04 24.48267211 32 10.11 +03 22 06.3                WEM082T09

Observer details:
T09 Subaru Telescope, Maunakea.  Observer .  Measurer S. Deen.  8.3-m Subaru
    Telescope + CCD.
T14 Canada-France-Hawaii Telescope, Maunakea.  Observer P. Duc.  Measurer S.
    Deen.  3.58-m Canada-France-Hawaii Telescope + CCD.

Orbital elements:
2019 CV30                                                                       
Epoch 2024 Mar. 31.0 TT = JDT 2460400.5                 Alexandersen            
M 328.92331              (2000.0)            P               Q                  
n   0.00317859     Peri.   44.13659     -0.79966529     +0.59874635             
a  45.8120937      Node   172.24534     -0.60041239     -0.79656120             
e   0.0687892      Incl.   19.54766     -0.00635527     -0.08362457             
P 310              H    7.66          G   0.15           U   5                  
Residuals in seconds of arc
150320 T14  0.0   0.0     190204 T09  0.1+  0.0     190308 T09  0.2-  0.1-
150320 T14  0.1+  0.0     190204 T09  0.1-  0.0     190308 T09  0.0   0.2+
150320 T14  0.1-  0.1+    190204 T09  0.1-  0.1-    190308 T09  0.1-  0.0
180318 T09  0.1-  0.0     190302 T09  0.1-  0.0     190308 T09  0.1+  0.1+
180424 T09  0.1+  0.1-    190302 T09  0.0   0.1-
190204 T09  0.1+  0.0     190302 T09  0.3+  0.1-

Ephemeris:
2019 CV30                a,e,i = 45.81, 0.07, 20                 q = 42.6607
Date    TT    R. A. (2000) Decl.     Delta      r    Elong.  Phase     V
2024 05 28    12 02 28.2 +02 59 21  42.7722 43.1704   112.5     1.2    24.2
...
2024 06 12    12 02 19.1 +03 00 23  43.0136 43.1689    98.1     1.3    24.2
...
2024 06 20    12 02 21.9 +03 00 06  43.1471 43.1681    90.5     1.3    24.2
...
2024 06 26    12 02 27.4 +02 59 30  43.2473 43.1675    84.8     1.3    24.2
2024 06 27    12 02 28.7 +02 59 22  43.2640 43.1674    83.9     1.3    24.2
2024 06 28    12 02 30.0 +02 59 14  43.2806 43.1673    82.9     1.3    24.2
...
2024 07 04    12 02 39.5 +02 58 13  43.3795 43.1667    77.3     1.3    24.2
...
2024 07 12    12 02 56.6 +02 56 23  43.5077 43.1659    69.7     1.3    24.2
...
2024 07 27    12 03 41.8 +02 51 38  43.7295 43.1644    55.6     1.1    24.2

M. P. C. Staff               (C) Copyright 2024 MPC           M.P.E.C. 2024-M82





More information about the Iaude mailing list